Theta_e
329 330 329 329 329 327 326 325 324 324 325 324 322 321 324 326 320 318 327 331 328 330 332 333 335 337 338 337 337 336 335 336 335 335 348 359 361 362 360 356 356 359 361 363 366 366 366 365 365 367 365 361 360 358 355 355 359 361 363 364 363 364 366 365 362 357 354 357 358 359 359 357 355 354 349 349 353 354 352 349 345 342 338 334 333 334 336
327 329 329 329 329 327 327 327 327 327 326 324 324 324 325 326 324 324 329 330 330 331 332 332 335 336 337 336 336 336 334 336 336 333 339 348 352 356 360 360 358 358 361 366 366 366 367 366 365 365 362 357 354 357 358 358 360 362 364 364 363 362 363 364 362 359 360 363 363 363 363 360 359 359 356 351 353 354 355 353 350 348 344 342 341 339 339
326 329 330 329 328 326 325 326 328 328 327 327 325 325 326 326 325 326 328 327 329 331 332 334 334 335 337 336 336 337 335 336 335 334 336 337 336 342 352 360 360 356 360 367 367 365 363 360 362 362 357 350 352 357 359 357 358 362 364 362 360 359 359 361 363 360 360 364 364 362 362 361 359 360 359 355 354 356 356 354 352 350 348 346 345 343 341
324 329 330 329 329 327 323 323 326 327 326 326 326 327 327 325 324 325 324 323 326 330 332 334 334 335 335 335 337 337 336 336 335 334 335 333 334 336 337 349 359 358 360 363 362 362 359 352 355 359 354 348 351 358 359 355 357 363 364 361 357 358 359 358 361 360 360 364 365 362 362 361 359 359 358 357 356 356 355 354 352 351 348 346 345 343 342
324 327 329 328 328 326 322 323 326 328 328 327 327 327 328 328 327 325 323 323 329 332 331 332 333 333 334 335 336 336 335 337 335 334 335 333 334 335 334 344 357 361 359 354 352 359 360 348 346 353 354 348 350 358 358 353 355 362 364 360 355 355 358 357 358 360 360 364 365 362 361 361 359 358 357 356 356 354 353 354 353 351 349 346 345 344 342
323 327 329 328 325 322 323 328 329 329 329 329 328 328 329 330 329 328 328 328 331 331 330 331 331 332 334 334 334 335 335 336 336 334 334 334 333 334 336 342 352 361 362 357 356 362 363 353 350 358 362 357 354 357 355 350 353 359 359 356 352 352 354 354 354 358 362 364 364 362 361 359 358 357 356 355 354 353 353 354 353 353 350 348 347 345 343
324 327 329 326 322 324 328 331 331 330 330 329 330 330 330 330 330 331 331 331 331 331 331 331 331 331 332 331 333 334 332 333 334 333 333 335 334 333 334 339 349 359 363 363 365 367 366 363 361 362 364 362 356 354 351 348 351 353 352 351 350 348 350 351 354 359 363 365 362 360 359 358 357 356 355 355 354 353 353 353 353 353 351 350 348 346 344
328 327 326 325 327 330 331 332 330 330 331 330 329 330 331 331 330 330 330 331 331 331 330 331 331 331 332 331 332 332 331 331 333 332 333 335 334 333 336 342 349 359 362 363 365 366 367 366 362 360 363 365 361 355 350 348 348 346 347 349 349 348 350 351 353 357 362 363 362 360 359 357 356 355 354 355 353 352 352 352 352 351 350 350 349 345 343
329 325 323 326 328 327 329 334 335 334 334 334 334 332 333 334 332 332 332 332 331 331 331 331 331 331 333 334 332 331 332 332 332 331 333 334 333 333 339 347 354 355 355 361 365 365 366 365 364 365 367 367 363 356 351 348 346 345 346 348 348 348 348 348 349 354 357 359 359 359 358 356 355 354 353 353 352 351 350 351 350 349 349 349 348 346 343
329 325 324 327 326 325 330 336 337 336 335 335 336 334 333 333 332 331 331 331 331 331 331 332 332 332 333 333 333 333 332 333 333 332 334 334 333 335 343 354 360 353 349 359 365 363 365 367 365 363 365 366 362 356 350 347 345 346 347 347 347 347 346 347 348 348 349 350 353 356 356 355 354 353 352 351 351 350 349 349 349 347 346 348 347 345 343
328 326 325 326 326 329 337 339 336 336 335 335 335 331 329 335 339 339 339 338 338 336 333 332 331 333 332 331 332 334 333 335 335 334 337 338 335 339 348 356 360 353 348 358 364 363 364 364 357 353 359 364 361 353 347 345 344 346 348 348 348 348 348 347 344 341 341 344 349 353 355 354 354 352 351 350 349 348 348 347 347 345 344 343 342 342 341
327 326 325 326 327 333 340 339 335 335 335 336 334 327 328 340 347 345 345 344 343 344 343 338 333 332 332 331 331 333 334 335 333 333 338 338 335 342 351 356 359 356 354 360 365 365 364 359 350 350 359 362 358 350 346 347 349 351 351 351 348 344 342 340 336 335 338 341 346 351 354 354 353 351 350 348 347 347 346 346 345 343 342 340 339 340 340
325 326 325 324 327 335 339 336 336 337 335 334 331 328 335 346 347 345 347 347 345 345 345 343 337 332 331 331 332 335 337 336 334 338 342 344 342 346 352 356 361 362 362 365 365 364 364 360 353 354 360 361 358 351 348 352 358 359 354 349 342 336 334 335 335 337 340 343 347 351 353 353 351 349 349 348 346 345 345 344 343 342 340 338 338 339 339
324 325 324 323 327 336 338 335 335 336 333 331 333 337 343 346 344 344 347 347 347 346 345 344 343 336 331 330 331 338 344 346 347 348 348 348 349 353 357 360 361 362 363 364 364 365 365 363 360 360 362 360 354 351 355 361 362 358 350 341 334 334 336 337 338 340 342 343 347 351 352 351 350 349 348 347 345 344 344 343 342 341 340 339 338 338 338
325 323 323 323 327 335 339 336 336 337 335 334 338 341 341 341 342 344 345 345 348 348 345 343 343 340 334 333 336 343 349 352 353 354 354 354 357 360 361 360 361 363 365 366 366 366 365 363 364 365 363 356 350 352 357 358 352 344 338 334 333 336 338 339 341 343 343 343 346 350 350 350 349 348 347 345 344 343 343 342 341 340 339 338 338 338 338
324 321 323 327 331 336 338 337 337 339 338 338 339 339 340 341 343 344 345 345 347 349 347 344 341 339 339 344 349 353 356 356 356 358 360 361 362 362 361 361 363 364 365 363 362 362 363 363 364 362 355 347 345 347 346 341 336 334 334 334 336 337 337 339 344 346 345 345 348 350 349 349 348 347 345 344 343 342 341 341 340 339 339 339 338 339 340
328 327 331 336 337 337 336 336 338 338 337 338 339 340 342 343 343 344 346 345 345 348 347 344 343 345 349 352 353 354 357 358 359 360 360 360 360 360 360 362 362 362 361 361 361 362 362 360 356 350 341 337 337 336 334 333 333 335 335 336 337 337 337 339 343 346 347 347 348 349 348 347 347 345 344 343 343 342 342 341 340 340 340 340 340 340 340
337 337 339 338 336 336 336 335 336 336 337 338 339 340 341 342 342 344 345 345 346 347 346 345 347 350 352 352 351 352 356 358 358 358 359 358 359 360 360 359 359 359 359 358 357 356 353 347 341 338 334 333 333 333 334 336 335 335 336 338 338 338 338 340 342 345 347 348 348 347 346 345 346 345 344 343 343 342 342 342 341 341 341 340 340 340 338
337 337 339 337 336 336 336 335 336 335 334 335 335 337 339 339 339 342 344 344 345 346 346 348 350 351 352 353 353 354 357 358 357 358 358 358 357 357 356 355 354 353 351 349 347 346 345 341 337 335 335 334 334 334 335 336 336 336 337 338 338 337 338 342 345 347 347 347 347 346 345 345 345 344 343 343 343 342 342 341 341 341 340 340 340 339 338
337 338 339 338 338 338 337 336 336 334 334 335 334 335 337 337 337 339 341 343 344 345 346 348 348 349 350 352 353 354 354 355 356 357 358 359 359 358 357 356 354 351 350 350 349 348 348 344 337 335 337 337 336 337 337 337 337 338 339 339 338 338 340 344 347 347 346 346 345 345 344 344 344 344 343 343 342 342 342 341 341 340 339 339 339 339 337
337 338 338 337 337 337 335 336 336 334 334 335 335 334 335 335 335 336 337 339 341 343 343 344 345 346 347 348 350 351 351 351 352 354 355 357 358 358 358 357 354 351 350 349 346 346 347 346 342 342 343 341 340 340 339 339 339 340 340 341 343 344 345 346 346 346 345 345 345 344 344 344 343 343 343 342 342 342 341 341 340 339 339 339 339 340 338
336 337 337 336 336 335 334 334 334 333 332 333 333 333 333 333 333 334 334 335 336 336 338 340 341 343 344 345 346 347 348 350 351 351 352 352 353 354 353 350 346 345 344 343 342 344 347 348 348 349 349 349 348 346 342 340 341 340 340 343 346 347 347 346 345 345 345 344 344 344 343 343 343 342 342 341 341 341 341 340 339 339 339 339 339 339 338
335 336 337 337 336 335 335 334 333 332 332 332 331 330 330 330 331 331 332 332 332 332 333 335 336 338 339 340 341 342 344 347 348 349 350 350 350 350 349 347 344 342 340 339 338 340 344 345 346 349 351 351 351 348 344 342 342 341 343 346 347 347 346 344 344 344 344 343 343 343 342 342 342 341 341 340 340 339 340 339 338 338 338 338 338 337 337
334 335 336 336 335 334 333 332 331 330 330 331 329 328 327 328 329 329 330 330 330 330 331 331 332 334 334 335 336 336 337 339 342 346 347 347 348 349 348 347 345 342 340 339 338 339 341 341 341 344 347 346 345 344 344 344 342 341 344 347 347 345 344 343 342 342 343 343 344 343 342 341 341 340 340 340 339 339 339 339 338 337 336 335 335 335 334
332 333 334 333 332 331 330 330 329 327 327 327 327 326 325 325 327 328 328 328 328 328 328 328 329 330 331 331 332 332 333 335 336 338 342 344 345 346 345 340 338 337 337 336 336 336 337 337 338 339 340 340 340 340 343 343 340 338 342 346 345 344 343 343 341 342 343 343 343 342 341 340 340 340 340 339 339 338 338 338 337 337 336 335 334 334 332
332 332 332 331 330 330 330 329 328 326 325 325 326 325 323 323 325 326 326 326 326 326 327 326 326 326 327 329 330 330 330 331 332 333 335 337 340 343 345 344 343 342 339 336 336 339 339 339 338 338 338 340 340 340 341 341 337 336 341 345 345 344 343 342 341 342 342 340 340 340 339 339 339 339 339 338 338 337 336 337 336 336 335 335 334 333 332
328 330 331 330 330 329 329 328 327 326 325 323 324 324 322 322 323 324 324 323 322 323 325 324 320 319 321 324 327 328 328 329 330 330 330 332 334 337 341 344 345 344 340 336 336 339 341 341 341 342 342 343 342 341 340 339 337 338 342 345 344 343 342 341 341 340 339 338 337 338 339 339 339 338 337 337 336 334 333 333 333 333 333 332 332 332 332
324 325 327 327 327 327 326 326 326 326 326 324 322 322 321 320 321 321 321 320 319 320 322 321 317 316 320 322 323 326 327 327 328 329 328 327 329 331 335 339 343 343 340 337 335 336 339 341 344 346 344 342 342 342 340 338 336 338 341 343 342 341 340 340 340 339 338 337 336 337 338 338 337 336 336 336 335 334 333 333 333 332 331 331 332 332 331
321 321 321 323 323 322 322 323 325 325 325 324 323 323 322 321 320 319 319 319 319 319 320 320 317 316 319 320 319 321 326 328 326 327 328 325 322 323 327 332 337 340 341 341 340 339 340 342 345 344 341 339 340 341 338 336 337 338 338 340 341 339 339 339 339 338 337 337 337 336 337 337 336 336 336 335 335 335 334 334 335 333 331 330 331 331 330
321 320 320 319 318 317 319 322 323 323 323 322 322 323 324 323 322 321 321 321 321 320 320 321 320 317 318 319 316 316 322 323 319 320 326 327 323 318 316 323 332 339 341 342 342 343 343 344 345 344 342 341 341 340 339 339 340 341 340 339 339 338 338 338 338 338 338 337 336 333 333 335 336 336 336 335 335 334 334 334 334 333 331 330 330 330 329
319 319 319 318 315 315 319 322 322 322 321 322 322 323 324 324 324 324 323 323 323 322 322 324 325 322 322 323 320 317 319 319 316 317 324 328 325 318 312 317 327 331 331 334 339 342 343 343 343 343 343 343 341 341 341 341 341 340 340 339 338 337 337 337 337 338 340 338 335 332 333 335 336 336 336 335 335 334 334 333 332 332 331 330 330 329 327
318 319 320 320 319 320 321 322 322 321 320 321 322 323 323 323 323 323 324 324 324 324 325 326 326 326 326 326 324 321 321 323 323 325 327 328 328 326 323 324 328 330 329 332 336 339 341 341 341 342 342 342 341 340 341 341 341 339 339 338 337 336 335 334 336 338 340 339 336 334 335 337 337 336 336 335 334 334 334 332 332 332 331 330 329 328 325
321 322 323 322 322 323 323 323 323 322 321 321 321 322 322 323 323 323 323 323 324 325 325 325 326 326 326 327 327 327 326 327 328 329 329 329 330 330 329 329 330 330 329 328 329 333 338 340 340 340 340 340 340 341 340 340 340 339 337 337 337 337 335 333 334 338 339 337 336 337 337 337 337 336 336 335 334 334 334 332 332 331 331 330 329 328 325
320 321 321 320 320 321 321 322 322 322 321 321 322 321 321 322 323 323 323 324 324 324 324 324 324 325 325 325 326 327 327 328 328 328 328 329 329 329 328 329 328 329 328 325 324 331 337 338 338 339 337 335 337 339 339 339 339 338 337 337 338 338 337 333 333 337 337 336 337 337 337 336 336 336 335 334 334 333 332 331 331 330 330 330 329 328 327
319 319 319 320 320 320 321 321 321 321 321 321 322 321 321 322 323 323 323 324 324 323 324 324 324 324 325 325 325 325 326 326 326 326 327 327 328 328 329 329 329 330 331 328 326 328 332 332 334 336 335 333 334 337 337 338 337 338 338 339 338 338 338 335 335 336 337 336 336 337 336 335 335 334 333 333 332 331 331 331 330 330 330 330 329 328 327
322 321 320 321 322 321 321 321 321 321 321 321 322 322 322 322 323 323 323 323 324 324 324 324 325 325 325 325 325 326 326 326 326 326 326 326 327 328 329 329 329 329 331 330 328 328 330 330 331 332 333 335 335 335 335 336 337 337 338 338 337 337 337 336 335 335 335 334 334 334 333 333 333 332 331 331 330 330 330 330 329 329 328 328 328 327 326
322 322 322 322 322 322 322 322 322 322 322 322 322 322 322 322 323 323 323 323 324 324 324 325 325 325 325 325 326 326 326 327 327 326 326 326 326 327 328 328 328 329 330 331 330 330 331 331 330 330 333 335 334 332 333 334 335 336 336 336 336 336 335 334 334 334 333 332 332 332 331 330 330 329 328 329 329 329 329 328 328 328 327 327 327 326 325
322 322 322 322 322 322 322 322 322 322 322 322 322 322 323 323 323 323 323 324 323 324 324 325 325 325 326 326 326 326 326 327 327 327 327 327 327 327 327 327 328 329 331 331 330 330 331 331 330 331 333 333 332 333 333 334 333 334 335 335 335 334 333 333 333 333 333 332 331 330 328 328 328 328 328 328 328 328 328 327 327 327 326 326 326 325 325
322 322 322 322 323 323 323 322 322 321 321 322 322 323 323 323 323 323 324 324 324 324 325 325 326 326 326 327 326 326 327 326 326 327 327 327 327 327 327 327 328 329 329 330 330 331 331 331 331 332 333 332 332 333 333 333 333 334 334 334 334 333 333 332 332 332 331 331 330 328 328 328 328 328 327 328 327 327 326 326 326 325 325 325 325 325 325
322 322 322 322 322 322 322 322 322 322 322 322 322 323 323 323 323 323 324 324 324 324 325 325 325 326 326 326 326 327 327 327 326 327 327 328 328 328 328 328 329 329 329 330 330 329 329 330 331 332 332 332 332 332 331 331 333 333 333 333 333 332 331 331 331 330 330 330 329 328 328 328 327 327 327 326 325 325 324 323 323 322 322 322 322 323 323
321 321 322 322 322 322 322 322 322 322 322 323 323 323 323 323 323 323 324 324 324 325 325 324 325 325 326 326 326 326 327 327 327 327 327 328 328 328 328 328 329 329 329 329 328 327 328 330 331 330 330 331 331 330 329 330 331 331 331 330 330 330 330 329 329 329 329 328 327 327 327 327 326 325 325 324 323 322 322 321 320 320 319 319 319 319 320
320 320 321 321 322 322 322 322 322 322 322 323 323 323 323 323 323 323 324 324 324 324 324 324 324 325 325 325 326 326 326 327 327 326 327 327 328 328 328 329 328 328 327 327 327 328 329 329 330 329 329 329 329 328 328 328 329 329 328 328 328 328 328 328 328 328 328 327 326 326 325 325 324 323 322 321 321 320 319 319 319 318 318 318 317 317 317
319 319 319 320 320 321 321 321 322 322 322 322 322 322 322 322 323 323 323 323 323 324 324 324 324 324 324 325 325 325 325 326 326 326 326 326 326 327 327 327 327 327 327 328 328 328 328 329 328 327 327 328 327 326 327 327 328 327 327 327 327 327 327 327 327 327 326 325 325 324 323 322 321 321 320 319 319 319 318 318 318 317 317 317 316 316 316
318 318 318 318 319 319 319 320 320 320 320 320 320 321 321 321 321 321 322 322 322 322 322 323 323 323 323 324 324 325 325 324 325 325 325 325 326 326 327 327 327 326 326 327 327 328 328 328 327 326 326 326 326 326 326 327 327 326 326 326 326 326 326 326 326 326 325 324 323 322 321 320 320 320 319 319 318 318 317 317 316 315 315 315 315 315 315
318 318 318 318 318 318 319 319 320 319 319 318 318 318 319 319 318 319 320 320 320 320 321 321 321 321 322 322 323 324 324 324 324 324 324 325 326 326 326 326 326 326 325 325 326 327 326 325 325 325 325 325 325 326 326 326 326 326 326 326 325 325 324 324 324 324 323 322 322 321 320 320 319 319 318 317 316 315 315 314 314 314 314 314 314 314 314
318 318 318 318 318 318 318 318 318 318 317 317 317 317 317 317 317 317 318 318 319 319 319 318 318 319 319 320 321 321 322 322 323 323 323 324 325 324 323 323 324 324 324 325 326 326 325 323 323 324 324 323 324 325 324 324 325 325 325 325 325 324 323 323 323 322 322 321 320 319 319 318 317 316 316 315 314 314 314 314 314 313 313 313 314 313 313
317 317 318 318 318 318 318 317 316 316 316 316 316 316 316 316 316 316 316 317 317 317 317 317 317 317 317 318 319 319 318 320 321 321 321 322 323 324 323 323 321 321 322 324 324 324 323 322 322 322 322 321 321 322 322 322 322 322 322 322 323 323 322 321 321 320 320 319 318 317 317 316 315 315 315 314 314 314 314 314 313 313 313 313 313 313 313
317 317 317 317 318 318 317 317 316 315 316 316 316 315 316 316 316 315 315 315 315 316 315 315 315 316 315 316 317 317 317 318 318 319 319 319 320 322 323 322 319 318 321 323 323 322 321 321 320 320 320 319 320 321 321 320 319 319 319 319 319 320 319 319 319 318 317 317 316 316 315 315 314 314 314 314 314 314 314 313 313 313 313 313 312 312 312
317 317 317 316 316 317 317 316 316 316 316 316 316 316 316 316 316 315 315 315 315 315 315 314 315 315 315 315 316 316 316 316 316 317 317 318 318 318 319 319 318 317 319 322 323 323 321 320 320 320 319 319 320 321 321 319 318 317 317 317 317 317 317 317 316 316 316 315 315 315 314 314 314 314 314 314 314 314 314 313 313 313 313 313 312 312 312
317 317 316 315 315 316 316 316 316 316 316 316 315 315 316 316 315 315 315 315 315 315 315 314 314 315 315 315 315 316 315 315 315 315 316 316 317 317 317 318 318 317 316 318 320 322 321 320 320 319 319 319 319 320 320 319 318 317 317 316 316 316 316 316 315 315 315 315 314 314 314 314 314 314 314 314 314 314 314 314 313 313 313 313 312 312 311
317 317 317 316 316 316 316 316 315 316 317 317 315 315 316 316 315 315 315 315 315 315 315 315 315 315 315 315 316 316 315 315 315 315 315 315 316 316 316 317 317 317 317 317 318 319 320 320 321 321 320 320 320 321 320 319 319 318 317 317 316 316 316 315 315 315 314 314 314 314 314 314 314 314 314 314 314 314 314 314 314 313 313 313 312 312 311
317 316 317 317 316 316 316 316 316 316 317 316 315 315 316 316 315 315 316 315 315 315 315 315 315 315 315 315 316 316 315 315 314 314 314 314 314 315 316 316 316 317 317 317 317 318 318 318 319 320 320 320 320 321 320 319 319 319 318 317 317 317 316 316 316 315 315 315 314 314 314 314 314 314 314 314 314 314 314 314 314 313 313 313 312 311 311
Wind_Speed
22 23 22 18 18 19 18 17 20 22 23 25 24 22 22 20 16 14 15 18 19 20 22 22 20 17 16 17 20 22 21 19 17 17 19 20 18 19 21 22 23 24 25 27 30 31 31 31 31 31 33 35 36 37 39 37 32 29 29 30 31 30 30 30 31 33 31 27 27 27 27 29 31 33 38 39 35 36 40 40 39 41 43 44 44 42 39
20 23 24 23 22 20 19 21 23 23 23 25 25 24 24 24 22 19 18 20 20 18 20 23 23 23 19 19 21 23 24 23 21 22 22 19 16 16 18 20 22 24 26 28 30 31 32 32 33 34 35 37 37 36 35 35 32 29 28 30 31 31 31 31 32 32 27 20 19 21 22 24 25 25 30 36 35 33 35 38 40 39 40 41 41 40 39
16 20 22 24 25 23 23 24 24 24 24 25 25 24 24 23 22 23 24 22 18 15 16 19 24 30 28 20 19 22 23 23 23 23 22 20 19 17 15 17 20 21 24 28 30 32 34 35 35 37 37 38 37 34 33 35 34 31 30 31 33 33 33 32 31 29 25 19 18 21 22 22 25 23 22 26 29 27 27 32 37 38 37 37 36 35 38
14 17 20 23 24 24 25 25 25 25 23 22 22 21 20 21 20 21 23 20 15 13 14 14 18 24 26 22 21 21 21 22 23 22 20 19 20 20 18 18 20 22 25 27 30 34 37 37 37 38 38 38 37 34 33 35 33 31 31 33 34 33 32 32 30 26 23 20 18 20 21 21 25 26 22 21 26 29 30 31 33 36 38 37 33 33 36
13 17 20 21 20 19 19 21 24 26 24 24 24 21 22 23 21 18 17 15 13 14 16 16 17 20 21 22 26 26 24 23 24 23 22 21 22 22 19 18 20 25 27 28 31 35 37 37 39 39 38 39 38 35 34 35 33 31 31 32 33 32 30 30 28 22 20 19 17 18 21 23 25 24 21 23 27 30 31 29 28 32 37 37 36 35 37
12 17 19 18 16 15 14 15 20 24 25 26 25 23 24 25 21 17 17 17 16 16 18 19 20 20 21 24 28 30 30 29 29 30 30 28 28 25 19 19 23 27 28 27 29 34 35 36 37 35 33 34 35 35 34 35 33 32 32 31 30 30 28 27 24 20 18 18 17 17 19 23 24 21 19 22 24 23 22 23 25 27 29 33 38 39 39
10 12 14 15 15 13 12 13 16 21 25 26 26 26 26 25 23 23 23 21 19 18 18 20 22 23 27 30 32 34 35 34 33 34 32 30 31 28 23 23 26 27 27 27 28 32 32 31 33 33 31 32 33 35 35 35 34 33 31 30 29 27 25 23 21 19 18 18 18 17 18 20 21 19 18 19 20 16 15 20 24 23 24 31 37 39 39
9 9 11 13 11 10 12 13 14 16 18 18 19 21 23 22 23 24 23 21 20 20 20 22 24 24 27 30 32 34 35 35 36 36 33 32 33 30 26 25 27 27 27 27 29 31 31 31 32 33 31 30 31 34 35 34 33 32 30 29 27 25 23 21 20 20 20 20 19 17 16 18 18 18 18 18 19 17 16 19 22 22 27 34 36 36 38
9 10 11 10 10 12 13 9 5 4 5 6 7 9 14 17 17 18 20 20 21 20 20 23 24 21 19 18 23 31 34 34 36 36 34 34 35 30 26 25 27 28 26 25 27 29 30 31 31 30 29 28 30 34 35 33 31 30 29 28 26 25 23 22 22 22 21 21 20 18 17 18 17 16 16 16 16 18 18 19 20 21 26 31 33 35 38
8 10 10 9 11 11 7 0 4 4 4 5 6 7 10 14 16 18 19 20 22 20 19 20 20 18 15 12 15 26 30 29 30 30 29 30 29 26 24 23 24 26 25 25 28 30 31 31 31 31 30 29 32 34 34 32 31 30 29 27 26 26 25 23 22 21 20 20 20 18 17 18 16 14 14 14 15 17 17 15 15 16 20 25 28 31 33
9 10 10 9 10 7 4 3 2 2 3 4 5 6 9 8 11 15 16 14 15 16 18 21 18 15 14 13 14 19 23 24 27 27 27 28 26 22 21 22 24 25 25 26 29 30 32 33 34 34 33 31 33 34 34 32 31 30 28 27 27 27 24 21 20 20 19 19 19 17 15 15 14 13 14 16 16 16 14 12 13 14 15 17 19 21 25
11 11 10 8 8 5 7 7 3 2 2 1 3 8 6 5 11 14 15 14 14 14 16 18 16 14 13 13 15 19 23 27 30 27 24 25 24 21 20 21 22 24 26 28 30 31 33 35 35 35 34 32 33 34 34 32 29 28 28 27 26 26 23 20 20 19 18 18 18 16 14 13 13 13 14 15 14 13 12 11 11 12 13 12 13 17 23
13 13 11 8 7 5 8 9 5 3 4 5 7 7 3 7 13 14 15 16 17 16 16 14 13 17 21 22 20 18 19 21 21 18 16 17 18 18 18 20 23 24 26 27 28 28 30 33 35 35 34 32 32 34 32 28 25 25 26 27 26 24 21 19 19 18 17 17 17 14 13 13 13 13 14 15 14 14 13 11 10 10 11 11 12 15 18
13 12 11 10 8 5 8 10 7 4 5 7 5 2 4 9 13 14 15 17 19 18 17 15 14 21 28 28 22 14 9 6 7 11 12 14 14 15 19 22 24 25 25 25 25 26 27 29 31 31 31 32 33 32 28 25 24 25 26 26 24 21 20 18 17 16 15 15 14 13 13 14 13 14 15 15 15 15 12 10 10 11 10 10 10 12 14
10 10 12 11 7 5 7 9 8 4 3 4 5 7 8 10 12 14 14 15 16 18 19 17 16 21 24 19 14 11 9 8 9 11 12 15 16 17 21 22 22 23 25 26 26 25 25 26 27 27 30 33 34 32 29 27 26 26 25 24 21 19 18 16 14 14 13 12 12 11 12 14 15 16 16 16 15 14 11 10 11 10 10 11 11 13 15
10 11 10 5 2 5 6 4 3 3 1 4 7 7 8 8 9 11 12 14 15 16 19 19 17 16 13 6 7 9 10 11 11 13 15 15 16 18 20 20 21 23 26 27 26 25 25 26 26 27 32 36 36 33 31 29 27 25 23 21 19 17 15 14 13 14 12 10 10 11 14 16 16 17 16 15 14 13 12 12 12 11 11 12 13 15 16
6 3 1 3 5 7 7 5 5 6 5 4 4 5 6 7 8 10 10 12 14 14 15 16 14 11 6 4 6 7 9 11 12 14 16 16 16 18 19 21 24 25 27 28 27 26 27 28 29 30 33 34 34 32 29 26 24 22 20 18 17 15 14 14 15 14 11 9 9 11 15 16 16 16 14 13 13 13 12 12 12 11 11 12 13 15 17
4 7 7 6 7 8 10 9 7 7 8 8 8 8 8 8 8 9 7 9 12 10 9 11 11 9 8 8 9 9 10 14 15 16 17 18 20 22 23 25 27 28 30 31 31 31 31 31 32 32 31 30 29 28 26 23 21 19 16 16 15 14 13 13 14 13 10 10 10 11 13 14 14 14 12 12 12 12 12 13 12 11 12 12 13 15 16
3 3 5 7 7 8 10 11 9 10 11 12 12 10 10 10 10 10 6 6 7 6 2 1 1 3 6 9 12 13 15 18 19 19 20 21 22 23 25 27 29 31 32 32 33 33 32 31 30 30 27 25 24 23 21 19 16 15 15 16 15 13 12 12 11 11 11 11 11 11 10 11 12 12 11 11 13 13 12 12 12 12 13 13 14 15 14
1 2 5 10 13 13 13 13 12 12 12 14 16 16 15 14 14 14 14 12 11 11 11 11 12 14 12 12 14 17 18 19 21 22 23 24 25 25 25 26 29 32 32 31 31 31 30 28 27 26 23 20 19 18 18 16 15 16 16 15 13 12 12 12 12 13 13 12 11 11 11 12 13 13 12 12 12 12 12 12 13 14 15 15 14 14 13
2 5 8 11 12 14 15 16 16 15 15 17 21 23 22 20 18 18 19 18 16 16 17 17 18 20 19 17 18 19 21 21 21 22 24 25 26 26 26 26 28 29 30 30 30 29 26 24 23 22 20 18 17 16 16 16 15 16 16 14 13 14 13 12 13 13 13 12 11 12 13 16 17 17 16 15 14 13 14 15 16 16 16 16 16 15 13
2 3 6 7 6 7 11 13 15 15 15 20 25 25 24 23 22 21 21 20 20 20 21 20 21 22 22 21 22 23 24 23 21 21 23 24 25 26 26 26 27 27 26 26 26 25 24 23 22 21 20 18 17 16 16 16 15 15 15 15 17 17 16 14 13 11 11 11 11 12 13 17 18 18 17 17 17 16 15 15 17 18 17 16 15 14 12
3 2 3 6 6 9 11 12 14 15 16 21 25 26 26 25 23 22 22 23 22 23 24 25 25 25 25 25 26 27 25 23 22 22 22 23 23 23 24 24 24 24 22 21 22 22 21 21 21 21 20 19 18 17 16 15 15 15 15 16 17 16 15 15 13 12 11 11 11 11 12 14 17 17 16 17 17 17 16 15 16 17 16 16 15 14 12
3 1 7 9 11 13 13 11 13 17 19 22 25 24 22 22 22 22 23 24 24 24 25 26 27 27 27 27 28 27 25 24 23 23 22 22 22 21 21 21 21 21 20 19 18 18 18 17 18 18 18 16 15 15 14 13 14 16 16 16 14 13 14 14 13 13 13 12 11 10 10 12 14 15 15 16 16 17 17 16 16 16 16 16 16 15 14
2 6 10 13 14 15 14 13 13 14 14 18 23 24 21 19 19 21 22 23 24 24 24 25 27 27 27 28 27 25 24 23 23 22 21 21 21 20 19 18 17 16 15 15 14 13 13 14 14 13 13 12 12 13 12 13 15 17 17 14 13 13 14 14 14 14 13 12 10 8 8 9 11 12 13 12 12 15 17 17 17 16 16 16 16 14 14
7 8 12 15 15 13 12 14 16 15 11 10 15 20 21 20 19 19 19 20 22 23 24 25 25 25 26 26 25 23 22 21 21 20 20 20 20 19 17 15 14 13 11 11 11 11 11 11 11 11 12 12 13 13 14 14 16 17 17 14 13 14 15 15 15 14 13 11 10 7 7 9 10 10 11 11 11 13 15 16 16 16 16 15 15 14 14
18 13 14 15 14 13 14 15 15 16 15 13 12 14 15 14 15 17 17 17 18 20 22 22 21 21 21 21 21 21 19 19 19 18 18 18 18 17 15 13 11 10 9 9 9 10 11 11 11 12 12 13 13 13 14 16 17 18 19 17 15 16 16 16 15 13 12 11 11 9 9 11 11 10 11 11 10 11 13 14 14 15 15 16 15 14 14
23 21 19 16 14 14 15 15 14 15 17 17 16 15 13 10 12 14 16 16 16 17 19 19 18 18 19 18 17 17 17 17 17 16 15 13 13 13 13 12 10 8 7 7 6 7 9 10 11 11 11 11 12 13 15 16 17 19 19 17 16 16 16 15 14 13 11 11 11 10 11 12 11 10 11 11 10 10 11 12 11 12 15 17 16 16 16
20 21 20 18 16 15 16 17 18 19 20 18 16 17 17 16 16 16 16 16 15 14 16 17 16 15 15 14 13 13 13 13 13 13 12 10 7 6 8 9 8 7 6 6 5 5 6 8 10 10 9 9 10 12 14 16 17 18 17 15 14 14 14 13 12 12 12 11 12 12 13 12 11 11 11 11 11 11 12 13 12 12 16 18 17 18 19
18 18 18 17 18 18 20 20 19 19 20 19 17 16 16 16 17 16 14 14 14 13 14 14 13 11 11 12 11 11 11 10 9 9 9 8 6 2 2 4 5 5 4 4 5 4 5 7 8 8 8 7 8 10 13 14 16 17 16 14 13 14 14 14 13 12 12 12 12 12 12 11 11 11 11 11 12 12 12 13 12 10 14 18 18 17 17
17 18 18 19 19 19 19 18 17 17 17 16 16 16 15 14 14 12 11 11 11 11 10 10 10 9 9 9 10 9 10 10 9 8 7 7 8 5 2 3 4 4 4 2 3 3 3 5 6 6 7 7 8 10 12 13 14 16 16 15 16 17 16 15 13 11 11 11 11 11 11 11 10 11 12 12 12 11 11 12 12 10 12 15 16 15 15
16 17 17 16 16 16 16 14 14 15 15 14 14 14 14 12 12 11 10 10 10 9 8 8 8 8 7 7 6 6 7 7 6 5 4 5 6 5 3 3 3 4 4 3 3 3 2 3 4 6 8 8 8 10 12 13 14 15 15 15 17 18 17 14 11 10 11 11 10 11 12 11 10 11 11 11 11 11 11 11 11 10 10 11 12 13 14
13 13 13 12 12 13 13 13 12 12 13 14 13 12 12 11 11 10 9 9 9 9 8 8 8 7 7 6 6 5 5 3 1 1 2 3 4 3 2 2 2 2 3 3 3 2 2 2 3 6 9 10 9 9 11 12 13 14 14 13 13 14 15 13 11 11 11 11 10 11 12 11 10 11 11 11 11 11 10 10 10 10 9 9 10 11 11
11 10 9 10 11 11 11 11 10 10 11 12 12 12 12 12 10 10 10 9 9 9 9 9 8 7 7 6 6 5 5 3 1 2 2 3 4 3 3 2 1 1 3 3 3 2 2 2 4 5 7 10 11 11 11 11 12 12 11 12 11 11 12 13 12 11 10 10 11 11 12 11 10 11 12 11 11 10 10 9 9 9 9 8 9 11 12
9 8 8 9 9 9 9 9 8 8 9 10 10 11 12 12 10 10 10 10 10 10 10 9 9 8 8 8 7 6 5 5 4 3 4 4 4 4 4 3 2 2 1 1 2 2 2 3 4 5 6 8 10 10 10 11 12 12 11 11 11 10 11 12 12 11 11 11 12 12 12 11 11 11 12 11 10 9 9 9 8 8 8 8 9 12 15
7 7 8 8 7 7 7 7 7 7 7 8 8 8 9 10 10 10 10 10 10 10 10 11 11 11 10 10 9 7 6 5 4 4 3 4 4 4 3 3 2 1 2 1 1 1 1 3 5 7 7 7 8 9 9 9 10 11 12 11 10 10 11 12 12 11 11 12 12 13 13 12 12 11 10 9 9 8 8 8 8 8 8 8 9 13 15
7 7 7 7 6 6 6 6 5 5 6 6 6 6 6 7 8 8 9 9 9 9 10 11 11 11 10 10 9 7 5 5 5 4 3 3 3 3 3 3 3 2 3 4 3 2 2 4 7 7 6 6 6 8 10 11 10 10 10 10 10 10 11 11 11 11 11 11 11 13 14 13 11 10 9 8 8 8 8 9 9 8 8 8 9 13 14
8 8 8 7 6 6 6 5 6 6 6 7 6 5 5 6 6 7 8 8 7 7 8 8 8 8 9 8 8 7 6 6 5 5 5 4 4 4 4 4 4 4 4 4 3 1 2 3 5 5 5 6 6 7 10 12 12 11 9 9 9 10 10 11 11 11 11 11 11 12 11 10 9 8 8 7 8 8 8 8 8 8 8 8 9 11 11
9 10 9 8 8 7 7 7 7 7 8 8 7 6 6 6 7 7 8 7 6 6 7 7 7 7 8 8 8 9 9 8 7 6 6 6 5 5 6 6 5 3 4 4 2 2 3 4 5 4 5 5 5 6 9 13 14 12 10 11 11 10 10 11 12 11 11 10 10 9 9 8 8 8 9 8 7 8 8 7 7 7 7 7 8 9 9
11 11 10 10 9 8 8 8 8 8 8 8 8 7 7 7 7 7 7 6 6 6 7 7 7 6 7 8 9 10 10 9 8 7 6 7 7 7 7 7 6 5 5 5 4 3 4 5 4 4 5 6 6 7 11 14 12 11 11 13 12 11 11 11 11 10 9 10 10 9 8 8 8 8 8 8 7 7 8 7 6 7 8 8 7 7 8
12 11 11 10 10 10 10 10 9 9 9 9 9 8 8 8 7 7 7 7 8 8 8 8 7 7 8 9 9 9 10 10 10 9 8 7 6 7 7 7 6 5 4 4 3 3 4 5 4 3 5 6 6 7 10 11 9 9 10 11 10 10 11 10 9 9 9 9 9 9 8 8 8 8 8 8 7 7 8 7 6 6 8 8 8 7 8
12 12 11 11 11 11 11 11 11 11 10 10 10 10 10 10 9 9 10 10 10 10 10 10 10 9 9 9 8 9 10 11 10 10 9 8 7 7 7 7 6 5 5 4 4 3 4 3 3 3 4 5 6 8 9 8 7 7 7 8 9 9 9 9 9 9 9 9 9 9 9 9 9 8 8 8 7 7 7 7 7 7 7 8 8 8 8
12 11 11 11 11 11 11 11 12 12 12 11 11 11 11 11 12 12 12 12 13 13 12 12 12 11 11 10 10 10 10 11 10 9 9 9 9 9 9 8 6 6 6 6 6 6 5 3 2 4 5 6 7 7 7 6 6 6 6 8 8 8 8 8 8 9 9 9 9 10 9 8 7 7 7 7 8 8 8 8 8 8 8 8 8 9 9
11 11 11 11 10 10 11 11 11 11 11 11 11 11 11 12 12 12 12 12 12 13 13 13 13 13 12 12 12 11 11 11 11 10 8 8 9 10 10 9 8 7 7 8 8 7 6 4 2 4 5 6 8 8 7 6 6 6 7 7 7 7 8 8 8 8 8 9 8 8 8 7 8 8 8 8 8 8 9 8 7 7 7 7 8 8 9
9 9 9 10 10 10 10 9 9 9 9 9 10 11 11 10 11 11 11 11 11 12 12 13 13 13 13 13 13 12 11 11 11 11 10 10 10 9 8 8 6 5 6 8 8 7 5 4 5 6 7 8 9 8 6 5 5 5 5 5 6 6 7 8 7 7 8 8 7 7 7 8 9 9 9 8 7 6 7 7 6 5 6 6 6 7 7
7 8 8 8 8 9 8 8 7 7 7 8 9 10 10 10 9 9 9 9 8 8 9 11 12 13 13 12 11 11 11 10 11 12 12 10 9 8 8 7 6 5 5 7 7 6 3 3 4 5 6 8 8 6 3 2 3 3 4 5 5 6 6 7 7 7 8 8 7 7 8 8 8 8 8 7 6 6 7 8 7 6 6 7 8 8 8
7 8 8 7 6 6 6 6 7 7 7 8 8 9 9 9 9 9 8 7 6 5 6 8 9 10 10 9 9 9 10 10 10 10 11 10 8 8 9 8 7 6 6 5 5 4 3 2 2 2 3 6 5 4 2 1 2 2 3 4 5 5 6 6 6 7 7 7 7 7 8 7 7 7 7 7 7 7 8 8 8 8 8 9 9 10 10
7 8 8 7 7 6 5 5 6 7 7 7 8 7 7 7 8 8 8 8 7 6 6 7 8 9 8 7 7 9 11 11 10 10 10 10 9 8 9 8 7 7 7 6 6 5 4 1 0 1 2 4 3 1 2 3 4 4 5 5 6 7 8 7 6 7 8 7 6 7 7 7 7 7 8 8 9 10 9 8 9 9 10 10 10 11 10
7 7 7 6 6 6 5 5 6 6 6 6 6 6 6 6 6 8 8 9 9 9 8 8 8 10 10 10 9 11 11 11 10 9 10 9 9 9 9 9 9 9 8 6 5 5 5 3 2 3 4 4 3 3 4 5 5 5 6 6 6 7 8 7 7 8 9 8 7 8 9 9 9 9 9 9 10 11 10 9 10 10 10 10 10 11 11
6 6 6 7 7 8 8 8 8 8 7 7 6 6 6 6 6 7 7 7 8 9 9 8 8 10 11 10 10 11 12 11 10 10 11 11 10 10 9 8 8 10 10 6 4 5 7 7 5 6 6 6 6 6 6 6 6 6 7 7 7 8 8 8 8 9 10 9 9 9 10 11 11 11 10 10 11 11 11 11 12 13 13 12 12 13 14
6 6 6 6 6 7 8 9 9 8 7 8 7 7 7 7 6 6 6 6 7 8 8 7 8 9 9 9 9 10 10 10 11 12 12 12 12 12 11 9 8 9 9 7 5 6 8 7 7 7 8 8 8 9 9 9 9 8 8 8 8 8 9 9 9 9 9 9 9 11 12 13 13 12 12 12 12 12 12 12 13 13 14 14 14 14 14
8 8 7 6 5 5 6 7 7 7 7 7 7 7 7 7 7 7 7 8 8 8 8 8 9 9 9 10 10 10 10 11 12 12 12 12 12 13 12 11 10 10 10 9 7 7 7 7 7 8 9 9 9 9 10 11 11 11 11 11 10 10 10 10 10 10 10 11 11 12 13 14 14 14 14 14 14 14 14 14 14 13 13 14 14 14 14
Wind_Direction
228 243 249 239 232 235 231 222 222 225 226 228 229 229 229 228 234 239 231 227 230 237 243 245 242 229 211 215 230 229 224 227 228 215 197 186 184 187 189 192 193 192 191 189 188 189 190 190 191 190 192 195 196 200 204 200 193 192 194 193 192 193 196 204 217 227 229 226 225 222 223 228 230 234 241 243 235 234 243 246 244 244 245 245 245 243 240
226 232 241 245 244 240 234 230 230 227 225 228 233 235 235 233 238 242 239 237 234 231 234 238 244 248 235 217 218 224 226 229 233 229 213 199 201 203 193 191 194 194 193 192 191 191 190 191 194 195 197 200 200 200 200 197 192 188 189 192 194 198 201 205 215 223 222 215 211 211 213 218 222 226 234 239 237 234 238 243 242 239 238 239 240 238 236
241 232 234 238 241 243 239 234 233 232 229 228 229 232 234 235 238 241 241 242 240 234 231 230 236 247 250 237 218 217 223 228 233 236 229 222 228 228 213 200 200 203 200 194 194 196 195 197 199 200 202 203 201 198 197 198 193 186 188 197 203 206 208 208 212 218 218 211 208 212 213 215 219 222 225 233 234 229 230 237 240 238 234 231 230 231 232
244 238 239 239 238 241 244 242 238 235 233 231 230 229 231 232 234 237 240 242 239 234 235 231 229 239 248 251 241 227 219 219 227 238 241 239 239 238 234 223 211 209 207 202 203 204 201 202 204 202 203 203 199 194 196 198 193 185 188 200 207 208 209 211 213 214 214 210 207 212 212 213 219 223 225 227 227 227 233 241 243 240 236 233 228 225 228
237 236 240 244 241 239 240 240 239 239 238 237 234 230 228 229 231 233 236 241 241 236 235 234 231 232 235 242 245 243 239 236 236 241 244 244 244 242 235 226 217 212 213 215 216 210 203 203 206 204 202 202 198 193 195 197 193 186 189 200 207 208 208 213 215 211 208 204 203 207 208 214 222 224 227 229 227 231 238 242 243 241 238 237 233 228 229
237 233 235 241 241 236 234 233 236 242 245 246 245 240 232 229 230 233 235 237 238 236 233 231 232 233 235 238 240 243 247 248 245 242 239 238 243 246 235 225 224 219 215 216 214 209 204 202 202 200 197 199 197 193 195 198 194 191 193 200 208 209 209 213 214 207 198 195 199 200 201 213 223 223 226 232 233 234 233 232 237 238 235 238 238 236 236
235 233 232 234 233 236 242 237 233 238 242 247 254 256 247 237 233 237 239 235 233 233 235 235 233 232 235 239 240 241 243 243 242 242 236 231 237 242 236 230 227 217 209 207 203 201 199 194 192 194 194 195 196 195 197 197 194 195 198 201 206 209 208 208 205 198 189 188 197 200 198 207 217 217 221 233 238 234 222 226 235 236 236 241 244 242 240
228 227 226 230 239 250 251 243 238 238 240 246 256 261 258 249 240 240 243 242 237 234 234 236 235 233 233 236 239 240 240 239 240 239 234 230 233 236 233 231 225 214 207 204 200 198 193 186 188 193 192 190 191 193 196 196 194 196 198 198 200 201 200 198 195 192 187 186 191 195 197 203 208 209 214 223 229 226 218 222 231 236 242 246 246 243 239
222 229 231 240 256 253 243 243 254 255 256 265 278 281 275 273 269 258 248 246 246 243 238 236 234 234 237 239 238 237 236 237 238 237 234 234 234 232 228 221 217 217 215 203 197 195 187 181 183 184 180 180 186 190 193 193 192 193 194 193 194 194 193 193 193 190 187 186 187 189 196 204 207 210 212 212 217 220 217 218 225 235 245 248 246 244 239
218 230 234 239 247 243 233 301 36 33 356 329 336 318 281 276 284 278 262 251 249 249 246 240 235 234 239 245 240 234 232 233 235 235 234 234 232 228 221 206 201 212 215 199 192 191 182 176 180 181 177 179 186 189 190 188 188 188 189 189 190 190 190 190 189 189 189 190 190 189 194 202 206 207 206 205 211 216 216 216 219 228 242 247 245 244 242
219 227 233 230 233 226 165 120 57 13 354 354 343 291 265 270 295 299 298 289 275 266 255 244 237 235 237 238 237 233 230 231 234 233 231 231 229 223 212 197 194 206 206 192 187 186 178 177 184 186 181 180 185 187 185 185 184 184 184 185 186 186 185 184 184 188 192 195 194 191 191 196 198 198 202 207 210 211 210 214 218 221 230 237 237 239 241
219 226 233 234 240 224 161 153 174 215 179 119 245 241 246 343 347 334 328 318 310 308 289 261 241 233 237 242 240 238 241 240 234 228 224 224 221 214 202 191 189 193 190 183 180 178 177 180 186 185 178 177 181 182 181 179 177 176 178 180 181 183 182 182 185 190 194 196 195 190 189 191 192 195 204 207 207 207 209 210 217 223 225 224 226 239 244
217 223 231 237 248 227 174 170 192 221 207 211 227 231 259 340 335 333 330 317 312 315 309 289 257 239 240 243 241 244 256 251 228 207 202 205 204 198 189 182 178 175 174 175 174 171 172 176 178 177 175 174 176 176 173 167 163 167 174 177 177 180 180 181 186 191 193 194 188 182 186 194 195 197 203 206 208 212 213 208 209 215 217 217 224 236 239
218 221 228 239 240 193 163 181 193 199 226 233 239 284 322 316 316 325 327 319 315 311 302 296 283 261 249 241 234 235 254 246 178 162 172 179 176 174 172 172 170 164 162 164 164 161 161 163 164 166 168 169 169 165 156 150 154 164 171 173 174 176 177 180 187 190 190 189 181 175 184 195 196 196 200 205 210 211 209 205 206 209 207 208 215 220 220
218 218 222 235 235 173 168 197 197 180 235 283 348 349 321 312 315 315 313 312 314 309 299 292 285 273 261 244 221 212 211 187 154 150 158 157 154 156 159 159 158 154 153 154 153 151 150 149 150 155 160 162 161 155 149 152 161 166 168 171 173 174 174 179 185 188 189 185 175 173 183 190 195 201 200 200 203 203 198 193 193 197 198 197 201 208 213
216 222 222 227 178 144 158 185 163 117 50 346 351 334 321 328 321 310 311 315 311 302 294 287 274 264 262 231 168 170 170 160 153 150 148 146 147 151 152 150 149 149 146 145 145 143 140 141 145 154 161 159 155 154 156 160 163 165 167 170 170 169 171 175 178 183 187 182 171 174 183 188 195 202 198 192 196 198 191 185 184 185 189 194 200 205 211
213 205 156 85 98 121 119 95 81 87 74 39 7 337 342 351 336 322 318 313 309 302 293 285 267 241 211 140 148 167 154 142 141 141 141 143 144 146 145 143 142 140 136 134 134 132 133 140 148 157 162 159 155 155 157 159 161 164 165 166 166 166 169 174 180 183 181 170 167 179 187 188 192 196 189 184 191 193 188 187 189 190 196 204 209 209 208
97 80 83 95 103 108 105 94 79 77 70 58 46 27 13 11 358 343 326 312 314 309 284 272 258 228 190 163 168 168 144 128 123 125 129 133 136 138 138 134 132 130 130 133 133 131 134 143 150 154 157 157 154 153 154 156 160 162 162 162 163 165 170 177 183 182 171 163 169 180 183 183 186 190 185 183 190 189 187 192 197 200 205 209 209 206 205
137 106 106 106 100 98 104 101 84 67 61 55 49 42 35 30 19 9 6 356 354 3 0 290 189 151 148 148 146 137 124 118 116 117 118 119 122 126 126 127 129 130 131 133 132 130 132 139 145 147 150 152 153 153 153 155 157 158 162 165 165 170 178 178 175 170 169 171 175 177 175 174 182 187 185 185 189 187 185 194 202 207 207 201 200 200 197
171 184 135 105 90 77 75 77 72 67 68 65 57 54 55 50 39 40 51 54 50 56 65 75 87 89 87 98 109 110 110 109 108 108 107 106 106 107 108 112 120 124 124 123 124 125 127 132 139 142 142 145 149 150 149 152 156 160 163 165 167 174 176 168 164 169 176 177 172 170 170 171 179 185 183 182 185 186 190 197 204 209 203 193 192 199 199
152 171 154 127 105 87 73 66 62 66 75 77 67 58 54 51 47 49 59 65 66 68 70 77 83 83 82 87 92 91 90 89 90 93 95 96 96 96 97 101 108 115 119 122 124 125 124 125 130 132 133 137 141 143 145 150 158 162 161 157 157 158 157 157 163 170 173 173 172 177 182 181 181 184 185 182 181 189 198 201 201 204 202 194 194 199 202
181 186 150 134 121 105 88 68 61 64 71 74 71 62 52 44 40 41 50 56 59 59 60 64 68 69 70 74 76 74 70 69 70 75 81 85 88 91 97 104 110 115 118 122 125 123 120 122 125 125 127 130 133 140 148 154 161 164 159 151 149 149 151 158 164 164 162 167 177 185 188 187 187 188 189 187 188 196 205 204 200 202 205 203 200 200 202
191 267 90 101 97 99 96 74 56 57 63 67 68 64 55 45 36 33 38 41 43 46 48 50 53 55 55 57 60 59 57 56 58 62 68 76 81 86 93 100 106 110 115 120 124 124 124 129 130 128 128 132 137 146 153 157 161 159 150 145 147 150 154 160 162 163 165 173 184 190 188 187 189 191 193 193 195 203 210 208 202 204 208 207 203 203 211
182 56 62 85 92 89 89 77 56 53 59 64 65 64 62 54 42 36 34 32 31 35 39 41 44 48 49 51 53 53 50 49 50 53 58 65 69 75 84 93 99 104 110 115 121 124 129 133 135 135 139 143 150 156 157 156 157 151 143 144 149 153 161 167 165 163 166 170 177 185 185 184 188 193 196 196 198 204 210 207 202 203 207 208 208 214 223
102 101 82 89 94 89 84 76 64 55 56 62 64 65 66 62 52 44 39 34 29 27 30 34 37 41 44 46 47 49 49 46 47 50 54 58 61 64 72 84 94 99 105 111 116 122 129 134 138 145 151 155 162 167 162 158 158 152 145 147 152 155 165 171 163 157 163 168 170 175 178 177 183 190 193 191 195 201 205 206 206 207 209 209 209 215 224
52 111 111 102 96 91 81 70 63 59 58 71 78 74 70 65 58 49 44 41 34 27 27 30 33 37 42 42 39 40 42 42 43 47 50 51 54 56 60 71 80 88 101 114 118 121 128 135 142 151 155 157 164 170 167 165 165 157 147 146 154 156 159 162 158 156 162 167 167 172 174 168 171 179 180 181 190 197 197 199 203 205 206 206 207 213 220
45 72 102 103 91 80 71 65 63 63 61 64 74 76 75 74 67 55 48 46 41 31 26 28 34 40 43 39 35 34 34 35 38 40 42 45 46 47 51 59 66 81 105 123 129 133 137 139 141 143 148 154 164 172 173 172 170 161 152 152 159 159 154 154 156 157 160 162 164 172 176 170 168 172 175 180 187 190 189 191 196 199 202 204 205 207 208
55 64 79 89 88 83 77 72 70 68 60 55 54 56 62 75 71 54 43 43 42 34 26 25 33 39 36 31 30 29 27 29 32 31 32 37 42 49 60 63 60 71 100 117 133 144 144 140 138 140 148 159 167 172 174 173 171 168 162 159 159 157 153 151 151 152 156 160 163 168 173 172 170 172 177 181 181 180 179 177 178 192 202 202 197 196 198
62 67 72 78 85 89 82 70 64 62 59 55 54 54 56 64 65 53 42 37 35 29 25 24 27 30 26 20 22 25 22 23 27 25 21 18 24 53 77 76 65 64 82 102 124 148 153 148 149 155 166 172 172 172 173 173 173 171 167 160 155 155 154 151 149 153 157 159 164 169 170 169 169 172 175 176 172 171 172 164 162 186 203 199 194 195 198
67 70 71 75 82 83 73 61 53 53 52 50 53 54 55 60 64 61 51 42 32 24 24 22 18 17 15 6 0 6 10 7 6 13 13 1 347 345 118 111 96 87 89 96 105 131 156 156 155 159 164 165 166 169 171 172 174 172 167 165 166 166 161 156 155 158 161 165 176 181 174 169 171 171 170 170 168 168 171 167 164 184 200 196 194 200 204
76 73 69 71 73 70 62 52 49 50 49 46 49 50 49 54 60 60 58 55 44 31 27 25 19 16 15 2 346 345 356 358 357 3 5 347 330 314 255 175 162 187 208 161 107 117 154 161 163 167 164 163 169 169 168 174 180 178 173 176 183 183 179 172 167 164 166 172 183 184 175 172 177 174 169 171 172 171 175 176 171 179 192 192 193 204 212
80 74 66 63 62 58 52 47 45 45 44 45 49 48 45 47 51 52 54 59 56 48 40 32 23 19 19 13 358 351 358 6 7 6 355 324 308 293 253 214 210 224 224 196 155 148 143 140 168 186 183 178 178 179 178 183 188 185 182 186 189 190 191 189 175 166 171 176 176 174 173 174 177 175 172 176 177 175 178 179 175 177 187 187 188 204 221
70 68 60 52 49 48 44 41 39 37 38 44 51 49 44 43 44 45 48 51 53 51 43 28 19 16 14 14 14 9 9 22 33 344 303 279 277 271 238 208 212 227 230 220 193 167 141 148 185 201 198 190 187 191 192 192 194 193 192 192 191 193 200 201 185 170 172 174 169 170 173 173 176 179 178 178 179 177 177 178 176 180 186 185 188 208 229
53 56 52 46 46 43 35 31 32 31 32 41 48 46 42 40 36 33 38 43 43 41 35 26 22 21 15 11 13 13 11 15 355 306 309 308 313 332 0 13 355 291 268 248 205 166 163 184 190 205 216 208 200 199 201 201 200 197 192 190 189 192 197 197 186 172 165 165 166 170 172 172 178 182 179 175 177 178 179 180 181 184 188 188 196 213 227
47 42 40 43 48 47 38 32 34 32 31 38 41 36 33 34 32 28 31 36 36 33 31 28 25 23 18 16 15 12 8 2 347 332 331 332 337 355 13 17 17 20 355 284 216 193 204 209 196 197 213 215 206 201 205 206 202 195 188 184 184 182 179 178 174 168 166 170 172 172 171 173 176 176 174 174 176 176 177 180 182 184 186 189 201 216 224
51 48 46 45 46 49 49 46 44 42 41 41 39 34 32 32 30 28 28 29 28 27 28 27 24 21 20 18 15 12 6 359 354 349 342 343 357 16 33 37 42 79 116 94 67 93 175 229 223 204 193 197 202 204 206 206 200 194 189 183 178 177 174 171 170 170 172 174 172 167 169 173 171 166 167 173 174 173 178 183 186 191 191 194 213 229 232
63 63 60 54 49 52 58 58 56 60 65 61 51 46 43 41 41 40 37 31 27 27 30 28 24 21 21 20 19 18 16 11 14 16 10 10 24 37 48 55 58 73 95 94 89 104 179 222 225 208 182 177 191 204 208 204 192 185 186 185 180 177 172 165 165 167 165 162 161 164 169 173 169 163 168 176 175 175 182 184 188 197 201 201 218 236 240
76 74 72 70 65 61 61 60 59 66 77 80 72 62 58 60 63 60 52 42 36 37 39 36 33 33 34 35 35 34 30 27 30 34 35 41 49 50 50 57 60 55 56 67 88 116 141 181 191 178 157 162 179 197 207 199 182 168 169 176 176 172 167 162 162 162 158 154 157 162 166 168 167 166 170 174 173 174 181 185 191 202 208 210 223 236 237
80 77 74 72 69 65 63 64 65 66 71 76 77 70 63 61 64 64 60 55 50 47 44 42 44 44 42 43 47 46 41 38 41 45 47 51 54 53 47 46 50 57 58 60 77 95 101 127 153 152 143 148 155 166 181 181 170 156 154 160 160 161 164 161 157 157 158 158 158 158 160 168 177 176 172 173 178 180 181 186 198 208 211 212 221 230 228
75 73 71 68 67 68 67 67 67 65 61 61 61 54 47 46 51 56 58 56 55 58 56 50 47 44 38 39 44 46 43 43 46 47 51 54 55 53 50 45 44 48 52 49 55 84 104 109 124 147 150 141 134 149 167 170 163 151 150 152 151 154 160 159 157 161 164 161 159 162 166 174 183 181 173 173 184 189 184 184 200 217 221 219 219 224 228
70 69 69 68 66 66 67 68 71 70 63 58 55 50 47 48 51 52 52 50 52 58 61 54 46 39 34 34 36 37 38 43 45 44 46 53 55 52 51 46 38 35 40 48 62 95 108 101 104 140 153 143 140 151 159 160 153 146 146 148 150 155 161 161 162 168 169 164 165 169 171 171 174 176 174 177 186 192 192 196 208 222 227 229 231 235 236
69 67 67 67 66 66 66 67 69 70 66 60 56 52 49 49 48 48 49 49 48 50 52 49 43 39 36 33 33 34 35 39 42 42 43 47 50 53 54 48 38 37 46 53 64 88 104 104 115 135 140 145 150 149 146 146 148 150 152 155 157 160 163 164 166 171 173 170 169 167 166 170 176 180 186 198 206 208 212 220 224 225 228 233 238 240 240
68 66 64 62 63 64 65 65 65 66 64 59 54 51 48 47 44 43 44 44 43 43 43 39 36 34 32 31 34 37 36 35 37 41 44 44 45 52 58 55 49 52 57 54 56 69 78 85 127 145 143 147 149 141 136 144 157 159 159 161 162 163 165 167 170 174 177 176 174 171 172 179 185 185 192 208 214 211 211 216 220 225 231 238 242 245 246
69 66 63 61 59 59 61 63 64 65 63 58 54 51 49 47 44 42 41 41 40 40 38 36 33 31 28 28 31 33 33 32 32 34 41 47 46 46 48 48 46 52 59 58 57 59 59 60 102 137 137 139 141 140 139 148 155 155 155 159 165 171 172 170 173 181 183 182 180 180 182 188 190 187 192 205 210 209 212 222 232 239 242 245 249 254 254
72 67 63 63 61 60 60 60 60 63 67 65 58 51 47 45 44 41 40 40 40 40 37 35 32 28 25 26 29 29 27 30 31 29 31 41 45 40 37 40 43 48 57 58 52 45 46 68 98 114 124 134 139 138 134 136 144 151 158 163 170 180 182 178 178 181 178 175 177 181 187 196 201 201 204 210 213 214 222 229 232 239 248 252 254 257 258
69 66 63 62 61 62 63 61 57 58 64 63 57 51 45 41 39 39 38 36 38 44 46 42 37 32 27 25 27 27 25 26 32 32 28 29 33 31 29 35 43 45 47 47 42 34 38 72 94 110 131 140 136 123 102 106 136 153 166 171 174 180 182 180 178 177 177 182 192 198 202 207 212 213 212 212 212 221 231 230 226 236 254 258 255 259 265
63 64 62 61 62 64 67 63 57 55 53 50 48 49 47 43 40 40 37 32 32 47 54 45 38 34 27 18 21 31 29 21 23 31 28 20 19 23 23 23 27 29 28 27 26 25 30 57 82 118 153 156 144 126 121 189 192 186 191 194 193 190 185 180 181 189 197 203 205 203 202 204 206 208 211 215 219 229 240 243 243 250 260 261 259 264 269
59 62 60 59 65 70 68 60 56 55 51 47 43 37 33 33 36 36 33 29 28 37 48 45 40 37 29 19 25 38 32 16 8 15 17 12 12 19 17 11 11 18 20 14 4 359 0 6 10 225 193 182 171 179 241 239 233 226 223 223 222 215 206 199 198 205 211 210 204 200 203 208 210 213 223 233 236 238 246 255 257 259 262 263 263 264 265
53 54 51 52 58 59 53 55 59 53 42 42 44 33 14 12 23 30 28 21 13 14 24 33 33 28 24 20 22 29 27 13 1 359 360 359 2 9 8 4 3 6 9 7 348 327 320 310 289 265 239 218 219 254 260 245 235 229 227 227 227 224 220 219 218 215 213 213 216 220 223 226 226 228 234 240 241 243 250 260 262 262 264 266 266 266 267
43 40 35 35 38 36 30 34 41 36 20 17 23 15 358 1 17 26 22 11 3 4 11 17 14 11 10 8 6 11 15 12 4 359 356 354 352 350 349 349 348 347 348 349 328 300 298 295 282 268 256 244 240 246 249 244 238 235 232 229 225 221 221 225 226 220 215 219 229 233 234 236 241 243 244 244 246 250 257 263 264 266 269 272 273 273 272
30 23 19 21 27 30 25 23 27 24 13 3 358 349 344 348 357 3 6 3 357 357 1 358 352 355 360 356 350 351 357 359 357 356 355 351 345 340 336 330 323 321 324 325 310 294 294 289 271 260 259 257 252 250 250 246 239 232 229 230 231 230 230 233 233 227 224 230 240 242 241 242 246 249 250 250 251 254 259 263 266 268 272 274 274 274 271
32 24 20 16 19 24 23 20 18 15 7 359 354 349 346 342 339 342 351 353 347 345 348 344 338 340 347 347 341 340 340 341 342 345 345 343 341 338 331 322 314 313 315 313 300 289 288 284 272 265 265 263 260 258 255 249 244 238 234 233 234 235 236 237 237 234 233 237 242 245 246 248 250 250 251 253 254 255 257 260 263 266 269 271 271 271 269